Cloud_Cover
76 100 100 86 5 37 100 16 5 0 5 5 0 0 0 0 0 0 0 0 0 5 82 96 100 88 100 59 5 5 0 0 0 0 0 0 0 0 0 0 0 0 5 10
100 100 89 100 77 100 8 100 5 4 8 10 0 0 0 0 0 0 0 0 4 5 23 94 100 99 21 36 65 60 1 0 1 1 5 0 0 0 0 0 1 4 5 10
10 100 100 100 93 26 5 5 3 5 54 20 0 0 0 0 0 0 0 1 5 20 5 93 88 100 39 12 96 98 89 79 93 5 2 0 0 0 3 5 5 5 5 2
76 100 100 100 90 12 5 32 5 6 39 5 5 4 0 0 0 0 0 5 5 5 5 8 81 10 50 6 51 100 100 93 88 5 4 5 5 3 4 5 4 5 5 0
99 100 100 98 68 25 20 54 23 73 80 32 1 5 0 3 0 2 0 3 5 5 5 6 99 64 5 5 5 6 49 100 100 100 100 94 60 5 5 2 4 5 0 0
100 90 100 99 100 99 8 100 59 37 88 45 0 2 0 3 0 4 0 4 19 100 56 55 76 100 5 36 19 5 5 4 53 98 100 99 39 4 2 0 0 0 0 0
100 100 100 100 100 100 100 70 92 93 99 8 0 0 0 0 0 0 0 0 8 63 5 5 5 3 5 75 100 100 22 0 0 0 0 0 0 0 0 0 0 1 4 5
100 100 86 96 100 100 100 55 53 100 5 5 0 0 0 0 0 0 0 0 0 0 2 5 5 0 5 77 100 100 76 5 2 5 1 5 1 0 0 4 5 17 11 7
95 61 100 58 100 64 100 95 55 46 5 2 0 0 0 0 0 0 0 0 0 0 3 5 0 0 0 5 13 100 90 43 49 20 5 5 39 71 62 31 33 30 70 82
47 98 93 28 100 99 25 26 100 92 6 5 0 0 0 0 0 0 0 0 0 0 0 1 0 0 0 0 7 9 18 98 53 43 74 74 84 60 37 6 29 80 99 79
5 5 46 98 98 88 41 84 69 98 6 5 0 0 0 0 0 0 0 0 0 0 0 0 0 0 0 4 5 28 68 8 8 22 91 93 56 12 77 68 56 18 5 5
31 3 5 34 58 15 5 8 52 10 5 4 3 0 0 0 0 0 0 0 0 0 0 0 0 0 4 5 74 10 5 5 8 91 89 100 99 88 41 56 5 5 5 3
25 5 15 90 20 6 5 78 83 12 5 5 5 1 0 0 0 0 0 0 0 0 0 0 0 2 63 92 18 48 83 92 100 100 100 78 12 5 5 5 5 5 5 5
96 67 6 17 53 86 44 8 18 21 27 5 2 0 0 0 0 0 0 0 0 0 0 5 5 5 60 96 62 79 97 100 96 89 49 9 5 9 15 5 5 5 5 5
94 99 62 31 100 13 6 1 39 15 19 44 4 0 0 0 0 0 0 0 0 3 5 5 5 84 90 96 98 100 84 77 94 100 92 32 50 32 27 20 5 16 5 5
82 83 85 100 31 8 5 5 5 46 60 5 0 0 0 0 0 0 0 0 4 5 18 31 5 55 99 99 82 70 100 100 100 99 100 84 72 12 5 5 5 5 4 0
94 24 63 98 58 89 10 5 9 59 6 4 1 0 0 0 0 0 0 2 48 99 100 100 100 100 99 77 82 100 100 100 100 98 86 42 5 5 5 4 5 0 0 0
90 99 100 93 80 42 14 78 34 7 5 5 5 5 0 0 0 0 4 99 99 100 100 100 100 100 96 80 100 100 100 100 77 33 7 5 5 4 0 0 0 0 0 0
100 100 100 75 61 36 61 96 83 36 33 5 5 25 5 5 5 5 60 87 100 100 100 99 99 100 40 82 88 99 95 9 5 5 2 5 0 0 0 0 0 0 0 0
100 100 100 100 68 57 100 100 49 45 71 100 92 78 32 50 84 77 100 100 100 100 100 94 92 36 47 78 100 41 47 94 7 5 0 0 0 0 0 0 0 0 0 0
100 100 100 100 100 100 100 99 76 94 100 100 65 94 96 100 100 100 100 100 100 98 98 58 8 31 100 91 70 100 94 8 5 0 0 0 1 2 0 0 2 0 0 0
100 100 98 100 100 100 100 84 54 99 100 100 100 100 100 100 100 100 97 88 69 75 39 57 87 100 17 60 100 52 5 5 1 0 1 4 2 2 1 0 0 4 1 0
100 100 100 100 100 100 100 100 100 100 100 100 100 100 100 90 92 99 100 100 55 85 98 100 55 7 42 42 77 5 5 2 0 4 5 5 5 0 0 1 5 4 1 0
100 100 100 100 100 100 100 100 100 100 100 100 83 99 92 80 82 85 99 96 59 100 84 51 6 6 41 59 45 63 2 5 5 5 5 5 0 2 5 0 0 4 0 4
95 88 89 100 100 100 79 42 76 81 88 98 87 91 95 100 100 92 84 95 87 94 50 5 5 5 22 95 59 5 8 6 5 5 0 0 4 3 0 4 5 1 5 18
96 90 88 100 74 40 8 12 5 68 100 100 100 76 33 70 98 100 65 62 67 44 24 84 33 59 94 18 5 5 5 5 5 5 0 2 0 3 1 5 0 5 5 30